User: anonymous   Login
Location: Fouquenies
(49.4624°N, 2.0492°E)
Time: 15:10:41
(UTC+00:00)
Language:

COSMO-SKYMED 1 - Orbit

View from above orbital plane
View from above orbital plane
View from above satellite
View from above satellite

Ground track
Ground track

The orbit data is extracted from the following two-line orbital elements,

1 31598U 07023A   23152.16149142  .00000585  00000-0  80105-4 0  9995
2 31598  97.8882 335.8690 0001158  97.0485 263.0859 14.82147464864611
Epoch (UTC): 01 June 2023 03:52:32
Eccentricity: 0.0001158
inclination: 97.8882°
perigee height: 622 km
apogee height: 623 km
right ascension of ascending node: 335.8690°
argument of perigee: 97.0485°
revolutions per day: 14.82147464
mean anomaly at epoch: 263.0859°
orbit number at epoch: 86461

The dashed part of the orbit path shows where the satellite is in the earth's shadow,  

DLR